Αρχική σελίδα
METAR-TAF:

METAR-TAF

Αεροδρόμια :

Imperial Municipal Airport

Imperial, Νεμπράσκα, Ηνωμένες Πολιτείες Αμερικής

γεωγραφικό πλάτος: 40-31N, γεωγραφικό μήκος: 101-37W, υψόμετρο: 997 μ

Παρών καιρός

Η αναφορά έγινε 26 λεπτά πριν, στις 11:53 UTC
Άνεμος 4 kt από Δ/BΔ
Θερμοκρασία -3°C
Υγρασία 74%
Πίεση 1025 hPa
Ορατότητα: 16.1 χλμ
Καθαρός ουρανός

METAR: KIML 161153Z AUTO 30004KT 10SM CLR M03/M07 A3027 RMK AO2 SLP277 T10281072 10000 21033 53009

Χρόνος: 05:19 (12:19 UTC)


TAF: λείπει

Μετεωρολογικές αναφορές και προγνώσεις για περισσότερα από 4000 αεροδρόμια (δελτία METAR και TAF).

Οι διαθέσιμοι σταθμοί απεικονίζονται στο χάρτη με κίτρινες και κόκκινες κουκκίδες.

Μετακινήστε το ποντίκι πάνω από τις κουκκίδες για να δείτε το όνομα του σταθμού.

Στη συνέχεια, κάντε κλικ για να δείτε τις μετεωρολογικές αναφορές και τις προγνώσεις καιρού.

Για να αλλάξετε το χάρτη: κάντε κλικ στα πράσινα κουμπιά με τον μαύρο σταυρό για να ζουμάρετε, στο πράσινο κουμπί με την παύλα για να αφαιρέσετε το ζουμ ή στα πράσινα βέλη για να αντιπαραβάλλετε χάρτες.


METAR-TAF: